Regional Weather Roundup
Issued by NWS

Home | Current Version | Previous Version | Text Only | Print | Product List | Glossary On
Versions: 1 2 3 4 5 6 7 8 9 10 11 12 13 14 15 16 17 18 19 20 21 22 23 24 25 26 27 28 29 30 31 32 33 34 35 36 37 38 39 40 41 42 43 44 45 46 47 48 49 50
000
ASUS44 KOUN 231310
RWROK

WEATHER ROUNDUP FOR OKLAHOMA
NATIONAL WEATHER SERVICE NORMAN OK
800 AM CDT MON OCT 23 2017

NOTE: "FAIR" INDICATES FEW OR NO CLOUDS BELOW 12,000 FEET WITH NO
      SIGNIFICANT WEATHER AND/OR OBSTRUCTIONS TO VISIBILITY.

OKZ001>007-009>012-014-015-017-231400-
NORTHWEST OKLAHOMA AND THE PANHANDLE

CITY           SKY/WX    TMP DP  RH WIND       PRES   REMARKS
GAGE           CLEAR     42  34  73 W6        30.06R
GUYMON         CLEAR     49  35  58 NW9       30.12R
ENID/WOODRING  PTCLDY    45  43  93 S6        30.01S
$$

OKZ016-021>023-033>039-044-045-231400-
SOUTHWEST OKLAHOMA

CITY           SKY/WX    TMP DP  RH WIND       PRES   REMARKS
LAWTON/REGL    CLEAR     47  43  86 CALM      30.08S
LAWTON/FT SILL CLEAR     45  42  91 CALM      30.07R
FREDERICK      CLEAR     48  42  80 SW7       30.05F HAZE
CLINTON        CLOUDY    49  36  61 SW14      30.06S
HOBART         CLOUDY    48  41  76 SW12      30.07S HAZE
ALTUS AFB      CLEAR     43  38  82 CALM      30.07S
$$

OKZ018>020-024>031-231400-
CENTRAL OKLAHOMA

CITY           SKY/WX    TMP DP  RH WIND       PRES   REMARKS
OKLAHOMA CITY  PTCLDY    52  37  56 SW7       30.05R
OKC/WILEY POST CLEAR     53  41  63 SW12      30.04R
OKC/TINKER AFB CLEAR     48  39  70 SW13      30.05R
STILLWATER     CLEAR     47  40  76 SW6       30.03R
GUTHRIE        CLEAR     50  40  68 SW7       30.03R
$$

OKZ008-013-054>072-231400-
NORTHEAST OKLAHOMA

CITY           SKY/WX    TMP DP  RH WIND       PRES   REMARKS
TULSA          PTCLDY    50  41  71 S7        30.01R
TULSA/JONES    CLEAR     44  42  93 CALM      30.03S
PONCA CITY     CLEAR     49  40  71 SW5       30.00F
BARTLESVILLE   CLEAR     42  39  89 SW6       30.01S
MUSKOGEE       CLEAR     42  42 100 S5        30.06R
$$

OKZ032-040>043-046>053-073>077-231400-
SOUTH CENTRAL/SOUTHEAST OKLAHOMA

CITY           SKY/WX    TMP DP  RH WIND       PRES   REMARKS
ARDMORE/DWNTWN CLEAR     43  41  93 CALM      30.07S
MCALESTER      PTCLDY    43  41  93 SW5       30.06F
$$





USA.gov is the U.S. government's official web portal to all federal, state and local government web resources and services.